FW1483 Weather Reports


time (UTC)temp
C
wind
direction
speed
KPH
gust
KPH
rain 1hr
cm
rain 24hr
cm
rain mn
cm
humidity
%
barometer
mb
20260502151510 11 11 1.6 14.5 0.00 0.00 0.00 53 1016.2
20260502130104 8 67 3.2 12.9 0.00 0.00 0.00 61 1016.3
20260502123049 8 34 0.0 4.8 0.00 0.00 0.00 64 1016.5
20260502121557 7 79 0.0 3.2 0.00 0.00 0.00 68 1016.3
20260502114541 7 13 0.0 4.8 0.00 0.00 0.00 66 1016.3
20260502113054 7 316 1.6 9.7 0.00 0.00 0.00 66 1016.0
20260502111544 7 346 0.0 11.3 0.00 0.00 0.00 68 1016.0
20260502110037 7 296 0.0 0.0 0.00 0.00 0.00 67 1015.9
20260502104533 7 355 3.2 12.9 0.00 0.00 0.00 65 1016.0
20260502103056 7 28 0.0 6.4 0.00 0.00 0.00 66 1016.0
20260502101544 8 159 1.6 12.9 0.00 0.00 0.00 66 1016.1
20260502091522 8 28 1.6 9.7 0.00 0.00 0.00 67 1015.9
20260502071506 10 36 0.0 11.3 0.00 0.00 0.00 70 1015.4
20260502070002 10 279 0.0 6.4 0.00 0.00 0.00 69 1015.3
20260502064601 10 83 3.2 9.7 0.00 0.00 0.00 69 1015.4
20260502063124 10 228 4.8 9.7 0.00 0.00 0.00 71 1015.5
20260502061559 10 108 3.2 16.1 0.00 0.00 0.00 69 1015.5
20260502060106 10 98 1.6 6.4 0.00 0.00 0.00 69 1015.7
20260502054610 10 225 1.6 4.8 0.00 0.00 0.00 68 1015.5
20260502053056 11 112 0.0 6.4 0.00 0.00 0.00 67 1015.5
20260502051551 11 148 3.2 9.7 0.00 0.00 0.00 70 1015.4
20260502050051 11 261 0.0 6.4 0.00 0.00 0.00 68 1015.7
20260502044545 11 148 0.0 12.9 0.00 0.00 0.00 68 1015.8
20260502043055 11 91 0.0 6.4 0.00 0.00 0.00 68 1015.5
20260502041540 12 192 4.8 11.3 0.00 0.00 0.00 67 1015.3
20260502040038 12 282 0.0 8.0 0.00 0.00 0.00 67 1015.2
20260502034536 12 115 0.0 8.0 0.00 0.00 0.00 69 1015.2
20260502033041 12 145 1.6 9.7 0.00 0.00 0.00 67 1015.0
20260502031535 12 336 6.4 22.5 0.00 0.00 0.00 66 1014.8
20260502030042 12 128 8.0 20.9 0.00 0.00 0.00 67 1014.8
20260502024533 13 238 3.2 19.3 0.00 0.00 0.00 66 1014.6
20260502023035 13 30 3.2 17.7 0.00 0.00 0.00 65 1014.6
20260502021534 13 155 1.6 17.7 0.00 0.00 0.00 64 1014.3
20260502020032 13 283 6.4 19.3 0.00 0.00 0.00 65 1013.7
20260502014531 11 314 3.2 14.5 0.00 0.00 0.00 75 1013.8
20260502013030 11 209 0.0 0.0 0.00 0.00 0.00 79 1013.7
20260502011530 12 209 0.0 0.0 0.00 0.00 0.00 78 1013.3
20260502010030 12 209 0.0 0.0 0.00 0.00 0.00 76 1013.0
20260502004528 12 209 0.0 0.0 0.00 0.00 0.00 75 1012.7
20260502003029 13 209 0.0 0.0 0.00 0.00 0.00 74 1012.4
20260502001531 14 132 0.0 0.0 0.00 0.00 0.00 70 1012.3
20260502000027 15 132 0.0 0.0 0.00 0.00 0.00 68 1012.0
20260501234528 16 132 0.0 0.0 0.00 0.00 0.00 65 1011.7
20260501233026 16 132 0.0 0.0 0.00 0.00 0.00 60 1011.8
20260501231524 17 132 0.0 0.0 0.00 0.00 0.00 58 1011.8
20260501230028 16 134 1.6 6.4 0.00 0.00 0.00 56 1011.9
20260501224525 17 157 0.0 0.0 0.00 0.00 0.00 59 1012.0
20260501223034 17 128 3.2 8.0 0.00 0.00 0.00 54 1012.0
20260501221524 17 142 4.8 12.9 0.00 0.00 0.00 53 1012.1
20260501220021 17 229 4.8 16.1 0.00 0.00 0.00 52 1011.9
20260501214527 17 100 1.6 6.4 0.00 0.00 0.00 52 1012.0
20260501213019 17 91 1.6 11.3 0.00 0.00 0.00 52 1012.1
20260501211518 18 211 8.0 19.3 0.00 0.00 0.00 49 1012.2
20260501210017 18 225 8.0 17.7 0.00 0.00 0.00 50 1012.3
20260501204515 17 162 3.2 17.7 0.00 0.00 0.00 51 1012.3
20260501203024 18 105 9.7 20.9 0.00 0.00 0.00 49 1012.5
20260501201513 18 146 4.8 25.7 0.00 0.00 0.00 49 1012.5
20260501200010 18 144 8.0 20.9 0.00 0.00 0.00 49 1012.7
20260501194508 18 146 9.7 22.5 0.00 0.00 0.00 48 1013.1
20260501193005 17 137 3.2 19.3 0.00 0.00 0.00 50 1013.5
20260501191503 17 234 8.0 22.5 0.00 0.00 0.00 48 1013.9
20260501190100 17 173 9.7 24.1 0.00 0.00 0.00 49 1014.1
20260501184609 17 188 6.4 25.7 0.00 0.00 0.00 51 1014.2
20260501183055 17 226 8.0 17.7 0.00 0.00 0.00 50 1014.3
20260501181605 16 146 12.9 19.3 0.00 0.00 0.00 51 1014.7
20260501180058 16 219 6.4 24.1 0.00 0.00 0.00 51 1014.9
20260501174545 16 157 6.4 22.5 0.00 0.00 0.00 52 1015.0
20260501173043 16 211 9.7 19.3 0.00 0.00 0.00 52 1015.6
20260501171552 15 147 11.3 19.3 0.00 0.00 0.00 53 1015.7
20260501170039 15 204 6.4 22.5 0.00 0.00 0.00 55 1016.1
20260501164533 14 107 9.7 20.9 0.00 0.00 0.00 53 1016.2
20260501163031 14 171 12.9 24.1 0.00 0.00 0.00 53 1016.4
20260501161529 14 120 12.9 24.1 0.00 0.00 0.00 52 1016.6
20260501160031 13 150 8.0 19.3 0.00 0.00 0.00 53 1016.6